SL-8 DEB, 21182

Orbit data source: Space-Track

SL-8 DEB, 21182 is space debris in LEO originally from a launch on Tue, 12 Feb 1991 UTC launched from the Plesetsk Missile And Space Complex (PKMTR). Debris objects in space refer to the collection of defunct objects orbiting the Earth. Examples of debris include non-operational satellites, rocket bodies, and fragments generated from explosions, collisions, or faulty payload assembly.

Loading next visibility...
Identifier
21182, 1991-009AV
Orbit
LEO
Country
Flag of CISCIS
Related business
Manufacturer
Unknown
Mission
Spacecraft
Bus & Motor
Unknown
Mass
Unknown
Launch date (UTC)
1991-02-12 (35 years ago)
Launch vehicle
Unknown
Launch site
Plesetsk Missile And Space Complex (PKMTR)
Object type
Payload
Rocket body
Debris
Shape & HBR
Unknown shape, 0.1 m
Radar Cross Section
Medium (>0.1 m² and <1 m²)

Expand to show TLE details & history
Last TLE update: 16 hours ago

TLE from 16 hours ago
0 SL-8 DEB
1 21182U 91009AV  26171.24038830  .00000000  00000-0  14496-3 0  9995
2 21182  73.9977 102.8306 0153297 288.9210 225.1671 12.22077511573293
Epoch: 2026-06-20T05:46Z
TLE epoch observation values (Epoch: 2026-06-20T05:46:09.549Z)
Latitude
26.04363°
Longitude
-80.18457°
Altitude
1,673.137 km
Speed
7.001 km/s
True Right ascension
18h 19m 15s
True Declination
25° 55' 25"
Sunlit
Object was in full shadow at epoch
Visualization orbit readout
Latitude
Unknown
Longitude
Unknown
Altitude
Unknown
Speed
Unknown
Apparent Right ascension
Unknown
Apparent Declination
Unknown
Sunlit
N/A
Visualization observer readout
Local Sidereal Time
08:46:29
Azimuth
Unknown
Elevation
Unknown
Doppler factor
Unknown
Orbital elements
Apogee altitude
1,703.392 km
Perigee altitude
1,459.358 km
Semi-major axis
7,959.512 km
Eccentricity
0.01533
Inclination
73.9977°
RAAN
102.8306°
Arg. of periapsis
288.921°
True anomaly
223.93805°
Mean anomaly
225.1671°
Eccentric anomaly
224.55092°
Mean motion
3.05642 °/min
Orbital period
117.78 mins
BSTAR
0.00014496
Loading maneuver chart data...
Computing Atmospheric mass density...
Loading historical data...
Loading historical data...
Loading historical data...
Loading historical data...
Loading historical data...
Loading historical data...
Loading historical data...

Documentation

Showing up to 5 results
|